Time,TemperatureF,DewpointF,PressureIn,WindDirection,WindDirectionDegrees,WindSpeedMPH,WindSpeedGustMPH,Humidity,HourlyPrecipIn,Conditions,Clouds,dailyrainin,SoftwareType,DateUTC
2013-08-23 00:13:00,72.0,65.0,29.08,North,-999,-999.0,-999.0,79,0.00,,,0.00,,2013-08-23 04:13:00,
2013-08-23 00:24:00,71.0,65.0,29.08,North,-999,-999.0,-999.0,80,0.00,,,0.00,,2013-08-23 04:24:00,
2013-08-23 00:43:00,71.0,65.0,29.08,North,-999,-999.0,-999.0,81,0.00,,,0.00,,2013-08-23 04:43:00,
2013-08-23 00:54:00,71.0,66.0,29.08,North,-999,-999.0,-999.0,83,0.00,,,0.00,,2013-08-23 04:54:00,
2013-08-23 01:22:00,71.0,66.0,29.08,North,-999,-999.0,-999.0,83,0.00,,,0.00,,2013-08-23 05:22:00,
2013-08-23 01:52:00,70.0,65.0,29.07,North,-999,-999.0,-999.0,85,0.00,,,0.00,,2013-08-23 05:52:00,
2013-08-23 02:12:00,70.0,66.0,29.07,North,-999,-999.0,-999.0,86,0.00,,,0.00,,2013-08-23 06:12:00,
2013-08-23 02:22:00,70.0,66.0,29.07,North,-999,-999.0,-999.0,86,0.00,,,0.00,,2013-08-23 06:22:00,
2013-08-23 02:42:00,70.0,66.0,29.08,North,-999,-999.0,-999.0,87,0.00,,,0.00,,2013-08-23 06:42:00,
2013-08-23 02:52:00,70.0,66.0,29.08,North,-999,-999.0,-999.0,87,0.00,,,0.00,,2013-08-23 06:52:00,
2013-08-23 03:12:00,70.0,67.0,29.08,North,-999,-999.0,-999.0,89,0.00,,,0.00,,2013-08-23 07:12:00,
2013-08-23 03:22:00,70.0,67.0,29.08,North,-999,-999.0,-999.0,89,0.00,,,0.00,,2013-08-23 07:22:00,
2013-08-23 03:53:00,70.0,67.0,29.08,North,-999,-999.0,-999.0,89,0.00,,,0.00,,2013-08-23 07:53:00,
2013-08-23 04:13:00,70.0,67.0,29.08,North,-999,-999.0,-999.0,89,0.00,,,0.00,,2013-08-23 08:13:00,
2013-08-23 04:22:00,69.0,66.0,29.08,North,-999,-999.0,-999.0,90,0.00,,,0.00,,2013-08-23 08:22:00,
2013-08-23 04:52:00,69.0,66.0,29.05,North,-999,-999.0,-999.0,91,0.00,,,0.00,,2013-08-23 08:52:00,
2013-08-23 05:12:00,69.0,66.0,29.05,North,-999,-999.0,-999.0,91,0.00,,,0.00,,2013-08-23 09:12:00,
2013-08-23 05:21:00,69.0,66.0,29.05,North,-999,-999.0,-999.0,91,0.00,,,0.00,,2013-08-23 09:21:00,
2013-08-23 05:53:00,69.0,67.0,29.05,North,-999,-999.0,-999.0,92,0.00,,,0.00,,2013-08-23 09:53:00,
2013-08-23 06:13:00,69.0,68.0,29.08,North,-999,-999.0,-999.0,96,0.04,,,0.00,,2013-08-23 10:13:00,
2013-08-23 06:23:00,69.0,68.0,29.08,North,-999,-999.0,-999.0,96,0.08,,,0.00,,2013-08-23 10:23:00,
2013-08-23 06:42:00,69.0,68.0,29.08,North,-999,-999.0,-999.0,96,0.08,,,0.00,,2013-08-23 10:42:00,
2013-08-23 06:52:00,69.0,68.0,29.08,North,-999,-999.0,-999.0,96,0.13,,,0.00,,2013-08-23 10:52:00,
2013-08-23 07:11:00,69.0,68.0,29.08,North,-999,-999.0,-999.0,97,0.04,,,0.13,,2013-08-23 11:11:00,
2013-08-23 07:22:00,69.0,68.0,29.08,North,-999,-999.0,-999.0,97,0.04,,,0.13,,2013-08-23 11:22:00,
2013-08-23 07:42:00,69.0,68.0,29.10,North,-999,-999.0,-999.0,97,0.04,,,0.13,,2013-08-23 11:42:00,
2013-08-23 07:53:00,69.0,68.0,29.10,North,-999,-999.0,-999.0,98,0.04,,,0.13,,2013-08-23 11:53:00,
2013-08-23 08:11:00,69.0,68.0,29.10,North,-999,-999.0,-999.0,98,0.00,,,0.17,,2013-08-23 12:11:00,
2013-08-23 08:22:00,69.0,68.0,29.10,North,-999,-999.0,-999.0,98,0.00,,,0.17,,2013-08-23 12:22:00,
2013-08-23 08:42:00,69.0,68.0,29.10,North,-999,-999.0,-999.0,98,0.00,,,0.17,,2013-08-23 12:42:00,
2013-08-23 08:52:00,69.0,68.0,29.10,North,-999,-999.0,-999.0,98,0.00,,,0.17,,2013-08-23 12:52:00,
2013-08-23 09:22:00,70.0,69.0,29.10,North,-999,-999.0,-999.0,98,0.00,,,0.17,,2013-08-23 13:22:00,
2013-08-23 09:42:00,71.0,70.0,29.10,North,-999,-999.0,-999.0,98,0.00,,,0.17,,2013-08-23 13:42:00,
2013-08-23 09:53:00,71.0,70.0,29.10,North,-999,-999.0,-999.0,98,0.00,,,0.17,,2013-08-23 13:53:00,
2013-08-23 10:12:00,72.0,68.0,29.13,North,-999,-999.0,-999.0,88,0.00,,,0.17,,2013-08-23 14:12:00,
2013-08-23 10:22:00,73.0,68.0,29.10,North,-999,-999.0,-999.0,85,0.00,,,0.17,,2013-08-23 14:22:00,
2013-08-23 10:52:00,75.0,66.0,29.13,North,-999,-999.0,-999.0,74,0.00,,,0.17,,2013-08-23 14:52:00,
2013-08-23 11:11:00,77.0,66.0,29.13,North,-999,-999.0,-999.0,68,0.00,,,0.17,,2013-08-23 15:11:00,
2013-08-23 11:44:00,79.0,64.0,29.14,North,-999,-999.0,-999.0,60,0.00,,,0.17,,2013-08-23 15:44:00,
2013-08-23 23:54:00,64.0,49.0,29.22,North,-999,-999.0,-999.0,58,0.00,,,0.17,,2013-08-24 03:54:00,